Tracking 29892 objects as of 21-Nov-2024
HD Live streaming from Space Station
objects crossing your sky now

FENGYUN 1C DEB

Track FENGYUN 1C DEB now!
10-day predictions


NORAD ID: 31186
Int'l Code: 1999-025BJQ
Perigee: 840.3 km
Apogee: 879.6 km
Inclination: 99.2 °
Period: 102.0 minutes
Semi major axis: 7230 km
RCS: 0.0179 m2 (small)
Launch date: May 10, 1999
Source: People's Republic of China (PRC)
Launch site: Taiyaun Space Center, China (TSC)

Note: This is SATELLITE DEBRIS
Your satellite tracking list
Your tracking list is empty




NASA's NSSDC Master Catalog

Two Line Element Set (TLE):
1 31186U 99025BJQ 24317.96843844  .00001846  00000-0  10319-2 0  9992
2 31186  99.1869 217.6933 0027153  89.0481 335.8155 14.11912161907566
Source of the keplerian elements: AFSPC